Voltar ao catálogo

SL-8 R/B

AtivoPO
NORAD 5907·ROCKET BODY·🇷🇺 Russia

Lançado Mar 25, 1972 de Plesetsk Cosmodrome

Loading…

Próximas Passagens (próximas 24 horas)

TLE

AtualizadoSource: Space-Track

Época: Sep 14, 2026, 13:46 UTC

1 05907U 72019B   26257.57365403  .00000001  00000-0 -29121-4 0  9996
2 05907  82.9747 179.4567 0020822 349.7134 183.6606 13.22473156628127

Acompanhe SL-8 R/B em tempo real com AllMySat

Download on the App Store